Weather History for PAMR - November, 2011

Change the Weather History Date:

Wednesday, November 23, 2011

  Actual Average Record
Temperature  
Mean Temperature 6 °F -  
Max Temperature 10 °F 25 °F - (-1)
Min Temperature 3 °F 15 °F - (-1)
Degree Days  
Heating Degree Days 58    
Moisture  
Dew Point 2 °F    
Average Humidity 76    
Maximum Humidity 84    
Minimum Humidity 67    
Precipitation  
Precipitation 0.00 in - - ()
Sea Level Pressure  
Sea Level Pressure 29.09 in    
Wind  
Wind Speed 4 mph (North)    
Max Wind Speed 8 mph    
Max Gust Speed -    
Visibility 8 miles    
Events Snow    
Averages and records for this station are not official NWS values.
T = Trace of Precipitation, MM = Missing Value Source: NWS Daily Summary

Daily Weather History Graph

Daily Weather History Graph

Search for Another Location

Airport or City:

Trip Planner

Search our weather history database for the weather conditions in past years. The results will help you decide how hot, cold, wet, or windy it might be!

Date:

Astronomy

Nov. 23, 2011 Rise Set
Actual Time 9:26 AM AKST 4:04 PM AKST
Civil Twilight 8:31 AM AKST 4:59 PM AKST
Nautical Twilight 7:35 AM AKST 5:55 PM AKST
Astronomical Twilight 6:43 AM AKST 6:47 PM AKST
Moon 7:33 AM AKST (11/23) 2:58 PM AKST (11/23)
Length of Visible Light 8h 28m
Length of Day
6h 38m
Waning Crescent, 3% of the Moon is Illuminated
Nov 23
Waning Crescent
Nov 24
New
Dec 2
First Quarter
Dec 10
Full
Dec 17
Last Quarter

Hourly Weather History & Observations

Time (AKST) Temp. Windchill Dew Point Humidity Pressure Visibility Wind Dir Wind Speed Gust Speed Precip Events Conditions
12:53 AM 10.9 °F 1.4 °F 6.1 °F 81% 29.09 in 10.0 mi NNE 5.8 mph - N/A   Overcast
1:53 AM 10.0 °F 3.6 °F 3.9 °F 76% 29.08 in 10.0 mi NNE 3.5 mph - N/A   Overcast
3:53 AM 10.0 °F 3.6 °F 3.9 °F 76% 29.08 in 10.0 mi NNW 3.5 mph - N/A   Overcast
4:11 AM 10.4 °F -0.4 °F 5.0 °F 79% 29.06 in 5.0 mi North 6.9 mph - 0.00 in Snow Light Snow
4:39 AM 10.4 °F -0.4 °F 5.0 °F 79% 29.06 in 2.0 mi NNW 6.9 mph - 0.00 in Snow Light Snow
4:53 AM 9.0 °F -3.2 °F 5.0 °F 84% 29.08 in 2.0 mi NNW 8.1 mph - 0.00 in Snow Light Snow
5:06 AM 8.6 °F -2.6 °F 3.2 °F 79% 29.07 in 3.0 mi NNW 6.9 mph - 0.00 in Snow Light Snow
5:53 AM 8.1 °F -3.2 °F 1.9 °F 76% 29.08 in 3.0 mi NW 6.9 mph - 0.00 in Snow Light Snow
6:43 AM 6.8 °F -2.0 °F -2.2 °F 67% 29.08 in 5.0 mi North 4.6 mph - 0.00 in Snow Light Snow
6:53 AM 6.1 °F -2.8 °F -2.0 °F 69% 29.10 in 5.0 mi NE 4.6 mph - 0.00 in Snow Light Snow
7:53 AM 6.1 °F -0.9 °F -0.9 °F 73% 29.10 in 9.0 mi NE 3.5 mph - 0.00 in   Overcast
8:53 AM 6.1 °F -0.9 °F -0.0 °F 76% 29.10 in 10.0 mi NE 3.5 mph - N/A   Mostly Cloudy
9:53 AM 7.0 °F 0.1 °F -0.9 °F 70% 29.10 in 10.0 mi NNE 3.5 mph - N/A   Mostly Cloudy
10:39 AM 8.6 °F - -0.4 °F 67% 29.10 in 10.0 mi Calm Calm - N/A   Overcast
10:53 AM 8.1 °F 1.4 °F -0.9 °F 67% 29.11 in 10.0 mi ENE 3.5 mph - N/A   Mostly Cloudy
11:53 AM 9.0 °F 0.6 °F 1.0 °F 70% 29.11 in 10.0 mi NE 4.6 mph - N/A   Mostly Cloudy
12:53 PM 8.1 °F - 1.0 °F 73% 29.11 in 10.0 mi Calm Calm - N/A   Partly Cloudy
1:53 PM 10.0 °F - 1.9 °F 70% 29.11 in 10.0 mi Calm Calm - N/A   Mostly Cloudy
2:53 PM 10.0 °F 3.6 °F 3.0 °F 73% 29.10 in 10.0 mi NNE 3.5 mph - N/A   Overcast
3:53 PM 9.0 °F - 1.9 °F 73% 29.10 in 10.0 mi Calm Calm - N/A   Scattered Clouds
4:53 PM 8.1 °F - 3.0 °F 80% 29.09 in 10.0 mi Calm Calm - N/A   Scattered Clouds
5:53 PM 7.0 °F - 1.9 °F 80% 29.09 in 10.0 mi Calm Calm - N/A   Overcast
6:53 PM 6.1 °F - 1.0 °F 80% 29.09 in 8.0 mi Calm Calm - N/A   Mostly Cloudy
7:53 PM 6.1 °F - 1.9 °F 83% 29.09 in 10.0 mi Calm Calm - N/A   Partly Cloudy
8:06 PM 6.8 °F - 1.4 °F 79% 29.08 in 10.0 mi Calm Calm - N/A   Scattered Clouds
8:53 PM 3.9 °F - -0.0 °F 84% 29.09 in 10.0 mi Calm Calm - N/A   Mostly Cloudy
9:53 PM 5.0 °F - -0.0 °F 80% 29.09 in 10.0 mi Calm Calm - N/A   Mostly Cloudy
10:53 PM 5.0 °F - 1.0 °F 84% 29.10 in 10.0 mi Calm Calm - N/A   Scattered Clouds
11:53 PM 6.1 °F - 1.9 °F 83% 29.10 in 10.0 mi Calm Calm - N/A   Mostly Cloudy